Rennes, France

12:34 AM CEST on April 30, 2017 (GMT +0200)
Saint Jacques

Weather History for LFRN - January, 2013

Change the Weather History Date:

Sunday, January 6, 2013

  Actual Average Record
Temperature  
Mean Temperature 42 °F -  
Max Temperature 43 °F 46 °F 57 °F (2007)
Min Temperature 40 °F 36 °F 22 °F (2017)
Degree Days  
Heating Degree Days 24    
Moisture  
Dew Point 41 °F    
Average Humidity 97    
Maximum Humidity 100    
Minimum Humidity 92    
Precipitation  
Precipitation 0.00 in - - ()
Sea Level Pressure  
Sea Level Pressure 30.52 in    
Wind  
Wind Speed 3 mph ()    
Max Wind Speed 6 mph    
Max Gust Speed -    
Visibility 4.2 miles    
Events      
Averages and records for this station are not official NWS values.
T = Trace of Precipitation, MM = Missing Value Source: Averaged Metar Reports

Daily Weather History Graph

Daily Weather History Graph

Search for Another Location

Airport or City:

Trip Planner

Search our weather history database for the weather conditions in past years. The results will help you decide how hot, cold, wet, or windy it might be!

Date:

Astronomy

Jan. 06, 2013 Rise Set
Actual Time 8:56 AM CET 5:29 PM CET
Civil Twilight 8:20 AM CET 6:05 PM CET
Nautical Twilight 7:41 AM CET 6:44 PM CET
Astronomical Twilight 7:03 AM CET 7:22 PM CET
Moon 2:42 AM CET (1/6) 12:57 PM CET (1/6)
Length of Visible Light 9h 45m
Length of Day
8h 33m
Waning Crescent, 36% of the Moon is Illuminated
Jan 6
Waning Crescent
Jan 11
New
Jan 19
First Quarter
Jan 27
Full
Feb 3
Last Quarter

Hourly Weather History & Observations

Time (CET) Temp. Windchill Dew Point Humidity Pressure Visibility Wind Dir Wind Speed Gust Speed Precip Events Conditions
12:00 AM 42.8 °F 41.1 °F 42.8 °F 100% 30.60 in 3.1 mi Variable 3.5 mph - N/A   Overcast
12:30 AM 42.8 °F 41.1 °F 42.8 °F 100% 30.60 in 3.7 mi Variable 3.5 mph - N/A   Overcast
1:00 AM 43 °F - 41 °F 92% 30.62 in 4 mi ESE 3.5 mph - -   Clear
1:00 AM 42.8 °F 41.1 °F 41.0 °F 93% 30.60 in 4.3 mi ESE 3.5 mph - N/A   Overcast
1:30 AM 42.8 °F 41.1 °F 41.0 °F 93% 30.60 in 3.7 mi Variable 3.5 mph - N/A   Overcast
2:00 AM 42.8 °F - 41.0 °F 93% 30.60 in 1.9 mi Variable 2.3 mph - N/A   Overcast
2:30 AM 42.8 °F - 41.0 °F 93% 30.57 in 1.0 mi Variable 2.3 mph - N/A   Overcast
3:00 AM 42.8 °F 40.1 °F 42.8 °F 100% 30.57 in 1.1 mi ESE 4.6 mph - N/A   Overcast
3:30 AM 41.0 °F 38.0 °F 41.0 °F 100% 30.57 in 0.8 mi ESE 4.6 mph - N/A   Overcast
4:00 AM 41.0 °F 38.0 °F 41.0 °F 100% 30.57 in 0.9 mi East 4.6 mph - N/A   Mist
4:30 AM 41.0 °F 39.0 °F 41.0 °F 100% 30.57 in 0.7 mi SE 3.5 mph - N/A   Mist
5:00 AM 41.0 °F - 41.0 °F 100% 30.57 in 1.7 mi Variable 2.3 mph - N/A   Mist
5:30 AM 41.0 °F - 41.0 °F 100% 30.57 in 1.3 mi Calm Calm - N/A   Overcast
6:00 AM 41.0 °F 39.0 °F 41.0 °F 100% 30.54 in - SE 3.5 mph - N/A   Overcast
6:30 AM 41.0 °F 39.0 °F 41.0 °F 100% 30.54 in 1.7 mi SSE 3.5 mph - N/A   Overcast
7:00 AM 41 °F - 40 °F 96% 30.56 in 7 mi SE 4.6 mph - -   Clear
7:00 AM 41.0 °F 38.0 °F 41.0 °F 100% 30.54 in 6.2 mi SE 4.6 mph - N/A   Overcast
7:30 AM 41.0 °F - 41.0 °F 100% 30.54 in 4.3 mi Calm Calm - N/A   Overcast
8:00 AM 41.0 °F - 41.0 °F 100% 30.57 in 3.1 mi Variable 1.2 mph - N/A   Overcast
8:30 AM 41.0 °F - 41.0 °F 100% 30.57 in 3.1 mi Variable 2.3 mph - N/A   Overcast
9:00 AM 41.0 °F 39.0 °F 41.0 °F 100% 30.57 in - Variable 3.5 mph - N/A   Overcast
9:30 AM 41.0 °F 38.0 °F 39.2 °F 93% 30.54 in - SE 4.6 mph - N/A   Overcast
10:00 AM 41.0 °F 39.0 °F 39.2 °F 93% 30.54 in 4.3 mi SSE 3.5 mph - N/A   Overcast
10:30 AM 41.0 °F 39.0 °F 41.0 °F 100% 30.54 in 5.6 mi South 3.5 mph - N/A   Overcast
11:00 AM 41.0 °F - 41.0 °F 100% 30.54 in - Variable 1.2 mph - N/A   Overcast
11:30 AM 41.0 °F 38.0 °F 41.0 °F 100% 30.54 in 5.6 mi SSE 4.6 mph - N/A   Overcast
12:00 PM 41.0 °F - 41.0 °F 100% 30.54 in 6.2 mi Variable 2.3 mph - N/A   Overcast
12:30 PM 41.0 °F 39.0 °F 41.0 °F 100% 30.54 in 6.2 mi Variable 3.5 mph - N/A   Overcast
1:00 PM 42 °F - 40 °F 92% 30.54 in 7 mi SE 1.2 mph - -   Clear
1:00 PM 41.0 °F - 41.0 °F 100% 30.51 in 6.2 mi Calm Calm - N/A   Overcast
1:30 PM 41.0 °F 39.0 °F 41.0 °F 100% 30.51 in 6.2 mi Variable 3.5 mph - N/A   Overcast
2:00 PM 41.0 °F 38.0 °F 41.0 °F 100% 30.51 in 6.2 mi SE 4.6 mph - N/A   Overcast
2:30 PM 41.0 °F - 39.2 °F 93% 30.51 in 6.2 mi Calm Calm - N/A   Overcast
3:00 PM 41.0 °F 39.0 °F 39.2 °F 93% 30.48 in 6.2 mi SSE 3.5 mph - N/A   Overcast
3:30 PM 42.8 °F - 41.0 °F 93% 30.48 in 6.2 mi Calm Calm - N/A   Overcast
4:00 PM 42.8 °F 41.1 °F 41.0 °F 93% 30.48 in 6.2 mi Variable 3.5 mph - N/A   Overcast
4:30 PM 42.8 °F 41.1 °F 41.0 °F 93% 30.48 in 6.2 mi Variable 3.5 mph - N/A   Overcast
5:00 PM 42.8 °F 41.1 °F 41.0 °F 93% 30.48 in 6.2 mi Variable 3.5 mph - N/A   Overcast
5:30 PM 42.8 °F 41.1 °F 41.0 °F 93% 30.48 in 6.2 mi SSE 3.5 mph - N/A   Overcast
6:00 PM 42.8 °F - 41.0 °F 93% 30.48 in 5.6 mi Variable 2.3 mph - N/A   Overcast
6:30 PM 42.8 °F 40.1 °F 41.0 °F 93% 30.45 in 3.7 mi SE 4.6 mph - N/A   Overcast
7:00 PM 42 °F - 41 °F 94% 30.48 in 3 mi SE 4.6 mph - -   Clear
7:00 PM 42.8 °F 40.1 °F 41.0 °F 93% 30.45 in 3.1 mi SSE 4.6 mph - N/A   Overcast
7:30 PM 42.8 °F 40.1 °F 41.0 °F 93% 30.45 in 3.1 mi SE 4.6 mph - N/A   Overcast
8:00 PM 41.0 °F 38.0 °F 41.0 °F 100% 30.45 in 5.6 mi SE 4.6 mph - N/A   Overcast
8:30 PM 41.0 °F 38.0 °F 41.0 °F 100% 30.45 in 4.3 mi SSE 4.6 mph - N/A   Overcast
9:00 PM 41.0 °F 37.1 °F 41.0 °F 100% 30.45 in 4.3 mi SE 5.8 mph - N/A   Overcast
9:30 PM 41.0 °F 39.0 °F 41.0 °F 100% 30.45 in - SSE 3.5 mph - N/A   Overcast
10:00 PM 41.0 °F 37.1 °F 41.0 °F 100% 30.45 in 2.8 mi SE 5.8 mph - N/A   Overcast
10:30 PM 41.0 °F 37.1 °F 39.2 °F 93% 30.45 in 6.2 mi SE 5.8 mph - N/A   Overcast
11:00 PM 41.0 °F 39.0 °F 39.2 °F 93% 30.45 in 3.1 mi Variable 3.5 mph - N/A   Overcast
11:30 PM 41.0 °F 39.0 °F 39.2 °F 93% 30.45 in 3.1 mi Variable 3.5 mph - N/A   Overcast